Waarnemingen

Advertentie
Mijn weer
La Hague, Frankrijk (7020): temperatuur & dauwpunt: 29.05.2020 06:00:00 - 04.06.2020 06:00:00 (CEST)La Hague, Frankrijk (7020): windsnelheid & windstoten: 29.05.2020 06:00:00 - 04.06.2020 06:00:00 (CEST)La Hague, Frankrijk (7020): windrichting: 29.05.2020 06:00:00 - 04.06.2020 06:00:00 (CEST)La Hague, Frankrijk (7020): luchtdruk: 29.05.2020 06:00:00 - 04.06.2020 06:00:00 (CEST)La Hague, Frankrijk (7020): zicht: 29.05.2020 06:00:00 - 04.06.2020 06:00:00 (CEST)La Hague, Frankrijk (7020): neerslag: 29.05.2020 06:00:00 - 04.06.2020 06:00:00 (CEST)
Datum & Tijd tt [°C] td [°C] ff [km/u] ff [kn] fx [km/u] fx [kn] dd ppp [hPa] vv [km] rr [mm]
04.06.2020 06:00:00 12,2 10,9 34 19 46 25 NNO 1004,6 - 0,2
04.06.2020 05:00:00 12,5 11,6 32 17 50 27 NNO 1004,7 10 0,6
04.06.2020 04:00:00 12,3 11,2 33 18 51 28 NNO 1004,8 - 3,6
04.06.2020 03:00:00 12,1 10,7 39 21 54 29 NNO 1005,2 - 0,4
04.06.2020 02:00:00 13,0 11,6 35 19 49 26 NNO 1005,2 16 0,4
04.06.2020 01:00:00 13,5 11,7 30 16 43 23 NNO 1005,3 - 0,0
04.06.2020 00:00:00 13,7 12,6 27 15 38 21 NNO 1005,3 - 0,0
03.06.2020 23:00:00 13,7 12,6 24 13 33 18 NNO 1005,4 16 0,0
03.06.2020 22:00:00 13,7 12,6 17 9 21 12 NNO 1005,5 - 0,4
03.06.2020 21:00:00 13,6 12,3 15 8 19 10 NNO 1005,6 - 0,2
03.06.2020 20:00:00 13,6 12,3 10 5 15 8 NO 1005,6 15 0,2
03.06.2020 19:00:00 13,9 12,5 8 5 25 14 NNO 1005,7 - 0,4
03.06.2020 18:00:00 14,4 12,4 10 5 21 12 NO 1005,9 - 0,0
03.06.2020 17:00:00 15,1 12,8 16 8 25 13 NNO 1006,1 15 0,0
03.06.2020 16:00:00 14,8 12,7 17 9 21 11 N 1006,6 - 0,0
03.06.2020 15:00:00 15,7 12,6 11 6 16 9 N 1006,9 - 0,0
03.06.2020 14:00:00 16,8 12,9 10 6 27 14 NNO 1007,2 15 0,0
03.06.2020 13:00:00 18,5 11,8 18 10 32 18 O 1007,3 - 0,0
03.06.2020 12:00:00 18,0 12,2 23 12 32 17 O 1007,5 - 0,0
03.06.2020 11:00:00 16,9 12,4 16 9 22 12 O 1008,1 16 0,0
03.06.2020 10:00:00 15,8 13,1 11 6 15 8 O 1008,6 - 0,0
03.06.2020 09:00:00 14,4 12,8 5 3 17 9 WZW 1008,9 - 0,0
03.06.2020 08:00:00 14,4 12,4 6 3 22 12 ZW 1009,0 14 0,0
03.06.2020 07:00:00 14,4 12,4 14 8 22 12 ZW 1009,6 - 0,0
03.06.2020 06:00:00 13,2 11,6 3 2 10 5 ZZW 1010,0 - 0,0
03.06.2020 05:00:00 13,1 11,7 8 4 10 5 ZW 1010,8 14 0,0
03.06.2020 04:00:00 12,9 11,5 5 3 9 5 ZW 1011,5 - 0,0
03.06.2020 03:00:00 13,8 12,2 8 4 16 8 ZW 1012,5 - 0,0
03.06.2020 02:00:00 14,1 12,5 10 5 15 8 ZW 1013,1 18 0,0
03.06.2020 01:00:00 14,1 12,1 7 4 16 8 W 1014,1 - 0,0
03.06.2020 00:00:00 13,5 11,2 3 2 12 7 ZW 1014,7 - 0,0
02.06.2020 23:00:00 13,7 11,4 5 3 11 6 ZW 1015,3 20 0,0
02.06.2020 22:00:00 14,7 12,0 6 4 11 6 W 1015,6 - 0,0
02.06.2020 21:00:00 15,7 12,3 8 5 18 10 W 1015,8 - 0,0
02.06.2020 20:00:00 16,8 12,5 5 3 9 5 W 1016,1 18 0,0
02.06.2020 19:00:00 17,2 12,9 4 2 15 8 W 1016,5 - 0,0
02.06.2020 18:00:00 16,8 12,5 9 5 13 7 NW 1017,1 - 0,0
02.06.2020 17:00:00 19,8 11,6 11 6 20 11 ONO 1017,6 18 0,0
02.06.2020 16:00:00 19,4 13,3 13 7 22 12 ONO 1018,1 - 0,0
02.06.2020 15:00:00 17,3 12,8 17 9 24 13 ONO 1018,6 - 0,0
02.06.2020 14:00:00 17,0 13,3 15 8 26 14 NO 1019,2 20 0,0
02.06.2020 13:00:00 17,1 13,2 21 11 32 17 NO 1019,5 - 0,0
02.06.2020 12:00:00 17,0 13,1 22 12 31 17 NO 1019,6 - 0,0
02.06.2020 11:00:00 16,7 13,2 21 11 31 17 NO 1019,8 20 0,0
02.06.2020 10:00:00 15,9 12,5 20 11 28 15 NO 1019,9 - 0,0
02.06.2020 09:00:00 15,5 12,3 16 9 24 13 NO 1019,9 - 0,0
02.06.2020 08:00:00 14,7 12,2 13 7 20 11 NO 1020,0 16 0,0
02.06.2020 07:00:00 13,5 11,7 17 9 21 12 ONO 1019,8 - 0,0
02.06.2020 06:00:00 12,4 10,8 14 8 22 12 ONO 1019,9 - 0,0
02.06.2020 05:00:00 13,4 11,8 17 9 22 12 ONO 1020,1 14 0,0
02.06.2020 04:00:00 13,6 11,8 19 10 26 14 NO 1020,3 - 0,0
02.06.2020 03:00:00 13,7 11,7 19 10 27 14 NO 1020,4 - 0,2
02.06.2020 02:00:00 13,4 11,6 17 9 22 12 ONO 1020,7 14 0,0
02.06.2020 01:00:00 12,8 10,5 17 9 22 12 O 1020,8 - 0,0
02.06.2020 00:00:00 12,7 10,9 16 8 18 10 O 1020,9 - 0,0
01.06.2020 23:00:00 12,9 10,6 14 7 16 9 O 1020,7 14 0,0
01.06.2020 22:00:00 14,1 11,1 11 6 14 8 ONO 1020,2 - 0,0
01.06.2020 21:00:00 15,1 11,7 10 5 25 14 ONO 1020,1 - 0,0
01.06.2020 20:00:00 16,4 12,0 15 8 26 14 ONO 1019,9 12 0,0
01.06.2020 19:00:00 16,6 12,1 14 7 21 11 ONO 1020,0 - 0,0
01.06.2020 18:00:00 17,0 12,5 12 6 17 9 ONO 1020,4 - 0,0
01.06.2020 17:00:00 16,9 12,6 11 6 24 13 ONO 1020,6 12 0,0
01.06.2020 16:00:00 17,4 13,9 11 6 20 11 NO 1020,9 - 0,0
01.06.2020 15:00:00 17,0 13,5 13 7 27 14 NO 1021,1 - 0,0
01.06.2020 14:00:00 17,1 13,2 18 10 28 15 ONO 1021,3 12 0,0
01.06.2020 13:00:00 17,0 13,3 17 9 29 16 ONO 1021,2 - 0,0
01.06.2020 12:00:00 16,9 13,2 20 11 32 17 ONO 1021,1 - 0,0
01.06.2020 11:00:00 16,0 12,7 24 13 34 18 ONO 1021,0 12 0,0
01.06.2020 10:00:00 15,6 12,5 25 13 32 18 ONO 1020,9 - 0,0
01.06.2020 09:00:00 15,4 13,1 15 8 22 12 ONO 1020,7 - 0,0
01.06.2020 08:00:00 14,2 12,4 14 8 21 11 ONO 1020,3 12 0,0
01.06.2020 07:00:00 13,1 11,7 18 10 24 13 ONO 1020,2 - 0,0
01.06.2020 06:00:00 12,9 11,5 21 11 24 13 ONO 1020,0 - 0,0
01.06.2020 05:00:00 13,0 11,2 18 10 23 13 ONO 1020,1 12 0,0
01.06.2020 04:00:00 13,0 10,7 18 10 27 15 ONO 1020,3 - 0,0
01.06.2020 03:00:00 13,3 10,1 21 11 29 16 O 1020,4 - 0,0
01.06.2020 02:00:00 13,7 9,9 21 11 42 23 O 1020,8 12 0,0
01.06.2020 01:00:00 14,1 9,7 24 13 38 20 O 1020,6 - 0,0
01.06.2020 00:00:00 13,9 9,5 22 12 41 22 OZO 1020,7 - 0,0
31.05.2020 23:00:00 14,5 9,1 29 15 48 26 O 1020,5 12 0,0
31.05.2020 22:00:00 14,6 9,4 27 14 42 23 O 1020,1 - 0,0
31.05.2020 21:00:00 15,5 9,8 25 13 37 20 O 1019,9 - 0,0
31.05.2020 20:00:00 16,5 10,3 23 12 40 21 O 1019,6 12 0,0
31.05.2020 19:00:00 17,2 11,0 22 12 30 16 O 1019,6 - 0,0
31.05.2020 18:00:00 17,2 11,9 22 12 35 19 O 1019,7 - 0,0
31.05.2020 17:00:00 17,4 12,1 24 13 35 19 O 1019,6 12 0,0
31.05.2020 16:00:00 17,7 13,2 21 11 35 19 O 1019,6 - 0,0
31.05.2020 15:00:00 17,7 12,8 22 12 34 18 O 1019,7 - 0,0
31.05.2020 14:00:00 18,1 13,8 19 10 30 16 O 1019,7 12 0,0
31.05.2020 13:00:00 17,0 13,7 22 12 32 17 O 1019,7 - 0,0
31.05.2020 12:00:00 16,8 13,5 24 13 35 19 O 1019,6 - 0,0
31.05.2020 11:00:00 16,2 13,5 19 11 28 15 ONO 1019,4 10 0,0
31.05.2020 10:00:00 15,4 12,9 21 11 27 15 O 1019,3 - 0,0
31.05.2020 09:00:00 15,1 13,0 18 10 27 14 O 1019,1 - 0,0
31.05.2020 08:00:00 14,3 12,7 16 8 21 11 O 1019,0 10 0,0
31.05.2020 07:00:00 12,7 11,4 14 8 22 12 O 1018,8 - 0,0
31.05.2020 06:00:00 12,1 10,8 16 8 21 12 O 1018,5 - 0,0
31.05.2020 05:00:00 12,7 11,4 17 9 24 13 O 1018,4 10 0,0
31.05.2020 04:00:00 13,2 11,8 21 12 28 15 ONO 1018,6 - 0,0
31.05.2020 03:00:00 12,7 10,9 22 12 25 14 ONO 1018,8 - 0,0
31.05.2020 02:00:00 13,4 10,9 18 10 24 13 O 1019,2 10 0,0
31.05.2020 01:00:00 13,8 10,2 18 10 29 16 O 1019,3 - 0,0
31.05.2020 00:00:00 14,5 9,9 21 11 31 17 O 1019,3 - 0,0
30.05.2020 23:00:00 14,2 10,6 21 11 33 18 O 1019,2 10 0,0
30.05.2020 22:00:00 15,0 10,0 24 13 35 19 O 1018,8 - 0,0
30.05.2020 21:00:00 15,9 9,8 19 11 34 19 O 1018,7 - 0,0
30.05.2020 20:00:00 16,9 10,0 21 12 32 17 O 1018,8 10 0,0
30.05.2020 19:00:00 17,1 11,1 22 12 32 18 O 1019,1 - 0,0
30.05.2020 18:00:00 16,5 11,6 23 12 30 16 O 1019,6 - 0,0
30.05.2020 17:00:00 16,8 13,3 17 9 26 14 O 1020,0 10 0,0
30.05.2020 16:00:00 16,7 13,6 17 9 24 13 ONO 1020,6 - 0,0
30.05.2020 15:00:00 16,7 13,8 16 9 24 13 ONO 1020,8 - 0,0
30.05.2020 14:00:00 16,9 13,8 19 11 31 17 ONO 1021,0 10 0,0
30.05.2020 13:00:00 16,1 13,4 24 13 36 20 O 1021,3 - 0,0
30.05.2020 12:00:00 16,0 13,3 26 14 34 19 ONO 1021,4 - 0,0
30.05.2020 11:00:00 15,7 13,4 26 14 34 19 O 1021,4 10 0,0
30.05.2020 10:00:00 15,0 13,0 26 14 34 18 O 1021,4 - 0,0
30.05.2020 09:00:00 14,5 12,9 23 12 33 18 O 1021,4 - 0,0
30.05.2020 08:00:00 13,6 12,3 23 12 31 17 O 1021,4 10 0,0
30.05.2020 07:00:00 12,7 11,6 23 13 31 17 O 1021,3 - 0,0
30.05.2020 06:00:00 12,4 11,3 23 12 29 16 O 1021,2 - 0,0
30.05.2020 05:00:00 12,5 11,2 20 11 27 14 O 1021,6 10 0,0
30.05.2020 04:00:00 12,6 10,8 21 11 30 16 O 1021,9 - 0,0
30.05.2020 03:00:00 12,1 9,8 23 12 29 16 O 1022,1 - 0,0
30.05.2020 02:00:00 12,3 9,7 15 8 24 13 O 1022,4 12 0,0
30.05.2020 01:00:00 12,9 9,5 18 10 28 15 O 1022,6 - 0,0
30.05.2020 00:00:00 13,0 9,4 19 10 30 16 O 1022,7 - 0,0
29.05.2020 23:00:00 13,4 9,4 20 11 32 18 O 1022,7 12 0,0
29.05.2020 22:00:00 13,7 9,7 20 11 32 17 O 1022,6 - 0,0
29.05.2020 21:00:00 14,9 10,3 21 12 37 20 O 1022,5 - 0,0
29.05.2020 20:00:00 15,7 10,7 23 13 39 21 O 1022,6 10 0,0
29.05.2020 19:00:00 16,0 11,2 24 13 32 18 O 1023,1 - 0,0
29.05.2020 18:00:00 15,9 11,7 19 10 32 18 O 1023,6 - 0,0
29.05.2020 17:00:00 16,4 12,2 20 11 29 16 O 1023,9 10 0,0
29.05.2020 16:00:00 16,1 12,3 22 12 32 18 ONO 1024,5 - 0,0
29.05.2020 15:00:00 16,1 12,3 23 13 30 16 ONO 1025,0 - 0,0
29.05.2020 14:00:00 16,1 12,5 24 13 33 18 ONO 1025,3 12 0,0
29.05.2020 13:00:00 16,3 12,5 24 13 37 20 ONO 1025,7 - 0,0
29.05.2020 12:00:00 16,0 12,2 28 15 39 21 ONO 1026,0 - 0,0
29.05.2020 11:00:00 16,1 12,6 25 13 39 21 O 1026,0 12 0,0
29.05.2020 10:00:00 15,4 12,5 27 15 39 21 O 1025,9 - 0,0
29.05.2020 09:00:00 14,6 12,5 26 14 37 20 O 1025,9 - 0,0
29.05.2020 08:00:00 13,8 12,4 21 12 29 16 O 1026,1 10 0,0
29.05.2020 07:00:00 12,9 11,8 18 10 29 16 O 1026,3 - 0,0
29.05.2020 06:00:00 12,4 11,3 21 11 28 15 O 1026,3 - 0,0

tt = temperatuur
td = dauwpunt
ff = windsnelheid
fx = windstoten
dd = windrichting
ppp = luchtdruk
vv = zicht
rr = neerslag

Weerstations in de omgeving